H1 CPF 2 NER 2022 4 25 9 115 01 glonass138 H2 1805301 9138 43508 2022 4 25 0 0 0 2022 4 28 23 45 0 900 1 1 0 0 0 1 H9 10 0 59694 0.00000 0 1792062.685 24870482.164 5344056.941 10 0 59694 900.00000 0 1955256.414 25331340.932 2165529.935 10 0 59694 1800.00000 0 2122675.703 25386154.115 -1055112.237 10 0 59694 2700.00000 0 2238537.377 25037071.185 -4255227.548 10 0 59694 3600.00000 0 2249001.477 24299597.289 -7372543.707 10 0 59694 4500.00000 0 2104702.681 23201942.280 -10346378.380 10 0 59694 5400.00000 0 1763094.499 21783853.254 -13118829.659 10 0 59694 6300.00000 0 1190505.378 20094979.504 -15635912.553 10 0 59694 7200.00000 0 363818.118 18192838.850 -17848618.310 10 0 59694 8100.00000 0 -728299.988 16140471.143 -19713875.201 10 0 59694 9000.00000 0 -2084669.690 14003877.984 -21195391.505 10 0 59694 9900.00000 0 -3691406.866 11849356.658 -22264363.972 10 0 59694 10800.00000 0 -5522273.361 9740840.380 -22900038.005 10 0 59694 11700.00000 0 -7539557.663 7737356.463 -23090108.897 10 0 59694 12600.00000 0 -9695449.019 5890708.696 -22830956.669 10 0 59694 13500.00000 0 -11933847.893 4243480.379 -22127710.489 10 0 59694 14400.00000 0 -14192537.272 2827440.671 -20994141.882 10 0 59694 15300.00000 0 -16405624.173 1662419.741 -19452389.372 10 0 59694 16200.00000 0 -18506149.458 755698.260 -17532520.327 10 0 59694 17100.00000 0 -20428757.079 101935.030 -15271938.917 10 0 59694 18000.00000 0 -22112311.287 -316366.050 -12714652.083 10 0 59694 18900.00000 0 -23502352.710 -527871.247 -9910408.075 10 0 59694 19800.00000 0 -24553290.944 -570957.730 -6913724.605 10 0 59694 20700.00000 0 -25230242.361 -491842.900 -3782825.858 10 0 59694 21600.00000 0 -25510436.847 -342382.609 -578509.298 10 0 59694 22500.00000 0 -25384135.254 -177632.375 2637035.465 10 0 59694 23400.00000 0 -24855019.946 -53275.362 5801432.530 10 0 59694 24300.00000 0 -23940042.879 -23026.346 8853326.794 10 0 59694 25200.00000 0 -22668738.315 -136121.594 11733568.958 10 0 59694 26100.00000 0 -21082029.570 -435000.678 14386355.645 10 0 59694 27000.00000 0 -19230580.101 -953278.029 16760303.035 10 0 59694 27900.00000 0 -17172757.924 -1714089.681 18809433.947 10 0 59694 28800.00000 0 -14972298.198 -2728884.854 20494059.977 10 0 59694 29700.00000 0 -12695760.923 -3996713.482 21781542.623 10 0 59694 30600.00000 0 -10409888.804 -5504040.225 22646919.565 10 0 59694 31500.00000 0 -8178974.307 -7225093.642 23073384.738 10 0 59694 32400.00000 0 -6062344.204 -9122737.280 23052613.516 10 0 59694 33300.00000 0 -4112064.947 -11149827.870 22584926.979 10 0 59694 34200.00000 0 -2370963.234 -13251005.681 21679291.963 10 0 59694 35100.00000 0 -871043.027 -15364844.241 20353156.446 10 0 59694 36000.00000 0 367635.849 -17426271.514 18632122.619 10 0 59694 36900.00000 0 1337571.290 -19369163.057 16549462.901 10 0 59694 37800.00000 0 2043899.424 -21129000.103 14145487.057 10 0 59694 38700.00000 0 2503938.863 -22645482.279 11466771.380 10 0 59694 39600.00000 0 2746217.793 -23864985.876 8565263.803 10 0 59694 40500.00000 0 2809024.878 -24742764.524 5497281.382 10 0 59694 41400.00000 0 2738545.122 -25244799.324 2322419.008 10 0 59694 42300.00000 0 2586659.582 -25349219.775 -897609.533 10 0 59694 43200.00000 0 2408502.498 -25047234.640 -4100175.454 10 0 59694 44100.00000 0 2259879.960 -24343532.394 -7222959.832 10 0 59694 45000.00000 0 2194660.471 -23256133.332 -10205174.648 10 0 59694 45900.00000 0 2262249.234 -21815698.701 -12988755.289 10 0 59694 46800.00000 0 2505254.583 -20064325.316 -15519500.200 10 0 59694 47700.00000 0 2957446.824 -18053876.133 -17748134.468 10 0 59694 48600.00000 0 3642097.318 -15843916.902 -19631275.841 10 0 59694 49500.00000 0 4570769.375 -13499345.719 -21132283.859 10 0 59694 50400.00000 0 5742613.131 -11087815.232 -22221975.191 10 0 59694 51300.00000 0 7144195.158 -8677055.749 -22879191.331 10 0 59694 52200.00000 0 8749870.745 -6332211.370 -23091207.786 10 0 59694 53100.00000 0 10522683.742 -4113300.517 -22853977.174 10 0 59694 54000.00000 0 12415756.602 -2072906.542 -22172202.022 10 0 59694 54900.00000 0 14374112.568 -254194.085 -21059236.320 10 0 59694 55800.00000 0 16336853.738 1310666.949 -19536818.297 10 0 59694 56700.00000 0 18239603.862 2601605.445 -17634640.024 10 0 59694 57600.00000 0 20017113.619 3611236.678 -15389762.628 10 0 59694 58500.00000 0 21605919.273 4344910.752 -12845888.866 10 0 59694 59400.00000 0 22946943.476 4820221.875 -10052507.513 10 0 59694 60300.00000 0 23987929.437 5066001.134 -7063926.470 10 0 59694 61200.00000 0 24685606.647 5120836.960 -3938213.792 10 0 59694 62100.00000 0 25007497.791 5031187.384 -736067.458 10 0 59694 63000.00000 0 24933291.519 4849165.042 2480363.897 10 0 59694 63900.00000 0 24455724.059 4630089.542 5648686.088 10 0 59694 64800.00000 0 23580933.265 4429911.271 8707466.906 10 0 59694 65700.00000 0 22328270.790 4302615.889 11597422.690 10 0 59694 66600.00000 0 20729580.664 4297719.213 14262561.116 10 0 59694 67500.00000 0 18827974.704 4457958.180 16651258.569 10 0 59694 68400.00000 0 16676155.910 4817275.080 18717251.911 10 0 59694 69300.00000 0 14334359.566 5399179.824 20420526.178 10 0 59694 70200.00000 0 11867997.296 6215559.139 21728082.012 10 0 59694 71100.00000 0 9345101.247 7265982.985 22614568.857 10 0 59694 72000.00000 0 6833673.660 8537537.838 23062772.455 10 0 59694 72900.00000 0 4399050.696 10005194.731 23063947.796 10 0 59694 73800.00000 0 2101388.617 11632697.983 22617991.380 10 0 59694 74700.00000 0 -6624.455 13373938.878 21733449.354 10 0 59694 75600.00000 0 -1881737.392 15174758.671 20427360.927 10 0 59694 76500.00000 0 -3491704.639 16975107.262 18724939.291 10 0 59694 77400.00000 0 -4816389.904 18711468.877 16659095.158 10 0 59694 78300.00000 0 -5848359.483 20319454.662 14269810.923 10 0 59694 79200.00000 0 -6592940.739 21736454.599 11603376.286 10 0 59694 80100.00000 0 -7067743.403 22904238.032 8711499.049 10 0 59694 81000.00000 0 -7301663.871 23771393.689 5650307.419 10 0 59694 81900.00000 0 -7333414.551 24295506.200 2479262.557 10 0 59694 82800.00000 0 -7209640.389 24444976.625 -739997.606 10 0 59694 83700.00000 0 -6982702.588 24200409.198 -3944860.628 10 0 59694 84600.00000 0 -6708223.863 23555504.544 -7072963.974 10 0 59694 85500.00000 0 -6442499.995 22517420.381 -10063416.822 10 0 59695 0.00000 0 -6239888.483 21106583.477 -12857994.266 10 0 59695 900.00000 0 -6150286.015 19355958.943 -15402281.083 10 0 59695 1800.00000 0 -6216803.194 17309808.927 -17646738.018 10 0 59695 2700.00000 0 -6473735.873 15021989.950 -19547674.081 10 0 59695 3600.00000 0 -6944920.406 12553862.014 -21068101.539 10 0 59695 4500.00000 0 -7642543.231 9971896.516 -22178458.169 10 0 59695 5400.00000 0 -8566455.877 7345083.358 -22857182.436 10 0 59695 6300.00000 0 -9704024.953 4742245.710 -23091130.657 10 0 59695 7200.00000 0 -11030523.813 2229374.623 -22875828.325 10 0 59695 8100.00000 0 -12510049.713 -132905.580 -22215551.254 10 0 59695 9000.00000 0 -14096928.024 -2291636.012 -21123235.471 10 0 59695 9900.00000 0 -15737544.502 -4203490.956 -19620218.088 10 0 59695 10800.00000 0 -17372528.675 -5836333.829 -17735814.701 10 0 59695 11700.00000 0 -18939196.607 -7170297.968 -15506741.882 10 0 59695 12600.00000 0 -20374150.427 -8198348.807 -12976396.418 10 0 59695 13500.00000 0 -21615925.478 -8926305.948 -10194005.582 10 0 59695 14400.00000 0 -22607573.958 -9372326.267 -7213665.277 10 0 59695 15300.00000 0 -23299076.646 -9565871.744 -4093285.098 10 0 59695 16200.00000 0 -23649481.605 -9546207.347 -893461.097 10 0 59695 17100.00000 0 -23628680.294 -9360493.892 2323701.606 10 0 59695 18000.00000 0 -23218746.813 -9061557.577 5495793.197 10 0 59695 18900.00000 0 -22414784.431 -8705431.322 8561307.089 10 0 59695 19800.00000 0 -21225244.180 -8348772.283 11460828.038 10 0 59695 20700.00000 0 -19671702.429 -8046264.792 14138177.541 10 0 59695 21600.00000 0 -17788106.820 -7848118.291 16541494.868 10 0 59695 22500.00000 0 -15619521.934 -7797765.517 18624233.428 10 0 59695 23400.00000 0 -13220426.722 -7929857.598 20346053.949 10 0 59695 24300.00000 0 -10652633.944 -8268640.130 21673598.125 10 0 59695 25200.00000 0 -7982917.287 -8826778.404 22581128.701 10 0 59695 26100.00000 0 -5280443.644 -9604681.210 23051024.347 10 0 59695 27000.00000 0 -2614115.860 -10590352.064 23074120.387 10 0 59695 27900.00000 0 -49934.715 -11759774.935 22649889.073 10 0 59695 28800.00000 0 2351511.686 -13077819.430 21786455.834 10 0 59695 29700.00000 0 4537328.281 -14499628.980 20500450.749 10 0 59695 30600.00000 0 6464269.624 -15972435.456 18816697.338 10 0 59695 31500.00000 0 8100292.065 -17437725.712 16767743.620 10 0 59695 32400.00000 0 9425637.594 -18833670.683 14393243.325 10 0 59695 33300.00000 0 10433404.498 -20097716.203 11739197.938 10 0 59695 34200.00000 0 11129581.111 -21169227.412 8857073.205 10 0 59695 35100.00000 0 11532541.378 -21992075.793 5802806.252 10 0 59695 36000.00000 0 11672023.488 -22517059.659 2635722.029 10 0 59695 36900.00000 0 11587634.698 -22704055.353 -582620.061 10 0 59695 37800.00000 0 11326945.716 -22523807.333 -3789626.725 10 0 59695 38700.00000 0 10943255.656 -21959280.282 -6922894.699 10 0 59695 39600.00000 0 10493122.785 -21006514.667 -9921433.258 10 0 59695 40500.00000 0 10033766.525 -19674948.257 -12726860.557 10 0 59695 41400.00000 0 9620451.786 -17987188.672 -15284549.495 10 0 59695 42300.00000 0 9303967.546 -15978245.537 -17544699.681 10 0 59695 43200.00000 0 9128307.542 -13694253.700 -19463313.871 10 0 59695 44100.00000 0 9128652.264 -11190740.630 -21003059.304 10 0 59695 45000.00000 0 9329738.411 -8530510.413 -22133996.780 10 0 59695 45900.00000 0 9744685.368 -5781232.803 -22834163.310 10 0 59695 46800.00000 0 10374328.673 -3012838.051 -23089997.197 10 0 59695 47700.00000 0 11207088.786 -294826.271 -22896597.595 10 0 59695 48600.00000 0 12219380.743 2306396.686 -22257814.028 10 0 59695 49500.00000 0 13376547.349 4730046.250 -21186164.606 10 0 59695 50400.00000 0 14634276.438 6923244.362 -19702585.042 10 0 59695 51300.00000 0 15940442.299 8842968.718 -17836013.824 10 0 59695 52200.00000 0 17237293.610 10457586.049 -15622821.990 10 0 59695 53100.00000 0 18463895.529 11747906.982 -13106098.994 10 0 59695 54000.00000 0 19558723.044 12707720.233 -10334808.867 10 0 59695 54900.00000 0 20462296.354 13343785.768 -7362833.376 10 0 59695 55800.00000 0 21119747.280 13675289.171 -4247921.146 10 0 59695 56700.00000 0 21483208.768 13732782.146 -1050563.470 10 0 59695 57600.00000 0 21513927.044 13556655.496 2167181.125 10 0 59695 58500.00000 0 21184007.733 13195210.375 5342890.418 10 0 59695 59400.00000 0 20477722.708 12702410.315 8414986.726 10 0 59695 60300.00000 0 19392322.956 12135409.615 11323926.451 10 0 59695 61200.00000 0 17938323.431 11551962.726 14013348.040 10 0 59695 62100.00000 0 16139247.901 11007823.953 16431156.602 10 0 59695 63000.00000 0 14030844.184 10554246.806 18530524.835 10 0 59695 63900.00000 0 11659802.118 10235687.887 20270791.641 10 0 59695 64800.00000 0 9082026.912 10087811.425 21618241.969 10 0 59695 65700.00000 0 6360538.734 10135877.879 22546753.720 10 0 59695 66600.00000 0 3563084.648 10393583.992 23038299.968 10 0 59695 67500.00000 0 759560.586 10862402.975 23083297.403 10 0 59695 68400.00000 0 -1980651.224 11531452.781 22680794.562 10 0 59695 69300.00000 0 -4591320.405 12377898.683 21838496.144 10 0 59695 70200.00000 0 -7011874.180 13367874.249 20572622.530 10 0 59695 71100.00000 0 -9189668.001 14457883.340 18907606.437 10 0 59695 72000.00000 0 -11081927.613 15596625.642 16875631.543 10 0 59695 72900.00000 0 -12657282.499 16727170.411 14516020.814 10 0 59695 73800.00000 0 -13896827.244 17789388.231 11874485.068 10 0 59695 74700.00000 0 -14794666.595 18722539.276 9002245.268 10 0 59695 75600.00000 0 -15357921.510 19467909.480 5955044.574 10 0 59695 76500.00000 0 -15606195.899 19971383.407 2792068.732 10 0 59695 77400.00000 0 -15570526.470 20185844.658 -425204.413 10 0 59695 78300.00000 0 -15291860.072 20073301.480 -3634203.751 10 0 59695 79200.00000 0 -14819123.095 19606646.453 -6772488.265 10 0 59695 80100.00000 0 -14206965.028 18770974.391 -9778970.205 10 0 59695 81000.00000 0 -13513272.347 17564401.194 -12595113.275 10 0 59695 81900.00000 0 -12796558.827 15998347.548 -15166081.507 10 0 59695 82800.00000 0 -12113343.697 14097274.152 -17441815.356 10 0 59695 83700.00000 0 -11515629.589 11897878.497 -19378013.274 10 0 59695 84600.00000 0 -11048587.823 9447786.032 -20936999.098 10 0 59695 85500.00000 0 -10748549.610 6803790.114 -22088457.958 10 0 59696 0.00000 0 -10641388.534 4029714.291 -22810026.347 10 0 59696 900.00000 0 -10741362.807 1193984.540 -23087725.338 10 0 59696 1800.00000 0 -11050466.259 -1632983.498 -22916227.985 10 0 59696 2700.00000 0 -11558314.996 -4381478.578 -22298957.494 10 0 59696 3600.00000 0 -12242574.326 -6985153.515 -21248013.676 10 0 59696 4500.00000 0 -13069907.381 -9383541.639 -19783930.107 10 0 59696 5400.00000 0 -13997404.954 -11524325.740 -17935267.090 10 0 59696 6300.00000 0 -14974435.771 -13365266.041 -15738048.738 10 0 59696 7200.00000 0 -15944838.749 -14875708.005 -13235055.524 10 0 59696 8100.00000 0 -16849364.407 -16037608.644 -10474986.374 10 0 59696 9000.00000 0 -17628262.239 -16846040.173 -7511506.887 10 0 59696 9900.00000 0 -18223904.677 -17309151.758 -4402202.568 10 0 59696 10800.00000 0 -18583336.942 -17447592.884 -1207457.686 10 0 59696 11700.00000 0 -18660645.247 -17293424.388 2010718.196 10 0 59696 12600.00000 0 -18419043.589 -16888564.522 5189892.933 10 0 59696 13500.00000 0 -17832591.336 -16282836.838 8268420.330 10 0 59696 14400.00000 0 -16887469.406 -15531703.054 11186631.110 10 0 59696 15300.00000 0 -15582761.401 -14693777.013 13887983.370 10 0 59696 16200.00000 0 -13930706.797 -13828224.627 16320150.726 10 0 59696 17100.00000 0 -11956415.224 -12992159.116 18436027.719 10 0 59696 18000.00000 0 -9697053.258 -12238140.684 20194633.781 10 0 59696 18900.00000 0 -7200536.825 -11611885.115 21561899.191 10 0 59696 19800.00000 0 -4523782.550 -11150276.843 22511318.757 10 0 59696 20700.00000 0 -1730589.519 -10879769.265 23024461.336 10 0 59696 21600.00000 0 1110762.134 -10815238.930 23091325.982 10 0 59696 22500.00000 0 3930097.805 -10959341.483 22710538.138 10 0 59696 23400.00000 0 6658014.459 -11302396.489 21889382.041 10 0 59696 24300.00000 0 9228517.132 -11822806.473 20643668.288 10 0 59696 25200.00000 0 11581517.889 -12487993.344 18997438.374 10 0 59696 26100.00000 0 13665094.449 -13255813.931 16982510.884 10 0 59696 27000.00000 0 15437415.372 -14076396.191 14637876.906 10 0 59696 27900.00000 0 16868252.088 -14894319.907 12008955.114 10 0 59696 28800.00000 0 17940014.775 -15651050.845 9146719.817 10 0 59696 29700.00000 0 18648268.762 -16287526.236 6106717.968 10 0 59696 30600.00000 0 19001709.683 -16746782.531 2947993.519 10 0 59696 31500.00000 0 19021598.213 -16976514.041 -268060.106 10 0 59696 32400.00000 0 18740678.145 -16931453.441 -3478897.026 10 0 59696 33300.00000 0 18201623.499 -16575472.288 -6622041.616 10 0 59696 34200.00000 0 17455080.470 -15883311.183 -9636312.225 10 0 59696 35100.00000 0 16557387.492 -14841864.821 -12463021.160 10 0 59696 36000.00000 0 15568070.474 -13450965.910 -15047126.502 10 0 59696 36900.00000 0 14547219.923 -11723633.327 -17338312.268 10 0 59696 37800.00000 0 13552861.712 -9685772.646 -19291975.100 10 0 59696 38700.00000 0 12638433.359 -7375340.413 -20870097.651 10 0 59696 39600.00000 0 11850473.067 -4841006.445 -22041991.286 10 0 59696 40500.00000 0 11226619.458 -2140369.539 -22784893.621 10 0 59696 41400.00000 0 10794006.501 662199.227 -23084409.421 10 0 59696 42300.00000 0 10568121.156 3497995.722 -22934786.597 10 0 59696 43200.00000 0 10552171.426 6296603.059 -22339022.443 10 0 59696 44100.00000 0 10736990.810 8988584.014 -21308798.507 10 0 59696 45000.00000 0 11101482.391 11508133.737 -19864245.900 10 0 59696 45900.00000 0 11613582.930 13795582.828 -18033546.061 10 0 59696 46800.00000 0 12231705.485 15799647.288 -15852375.150 10 0 59696 47700.00000 0 12906598.836 17479332.462 -13363203.267 10 0 59696 48600.00000 0 13583544.582 18805412.836 -10614462.483 10 0 59696 49500.00000 0 14204798.532 19761427.305 -7659600.119 10 0 59696 50400.00000 0 14712172.901 20344149.881 -4556036.095 10 0 59696 51300.00000 0 15049649.932 20563517.870 -1364044.903 10 0 59696 52200.00000 0 15165916.437 20442022.246 1854415.847 10 0 59696 53100.00000 0 15016712.212 20013587.421 5036907.214 10 0 59696 54000.00000 0 14566893.253 19321988.914 8121717.670 10 0 59696 54900.00000 0 13792122.826 18418876.549 11049055.404 10 0 59696 55800.00000 0 12680119.197 17361487.091 13762201.211 10 0 59696 56700.00000 0 11231407.423 16210142.846 16208600.104 10 0 59696 57600.00000 0 9459543.277 15025641.358 18340871.171 10 0 59696 58500.00000 0 7390799.432 13866645.471 20117716.838 10 0 59696 59400.00000 0 5063326.121 12787182.697 21504714.919 10 0 59696 60300.00000 0 2525820.145 11834357.938 22474979.016 10 0 59696 61200.00000 0 -164243.681 11046374.598 23009675.292 10 0 59696 62100.00000 0 -2942746.741 10450946.200 23098386.266 10 0 59696 63000.00000 0 -5741339.594 10064164.400 22739314.913 10 0 59696 63900.00000 0 -8490035.265 9889870.519 21939325.086 10 0 59696 64800.00000 0 -11119876.942 9919556.838 20713817.122 10 0 59696 65700.00000 0 -13565570.883 10132802.122 19086440.244 10 0 59696 66600.00000 0 -15767976.288 10498223.640 17088646.341 10 0 59696 67500.00000 0 -17676349.512 10974906.407 14759092.545 10 0 59696 68400.00000 0 -19250249.693 11514250.341 12142902.898 10 0 59696 69300.00000 0 -20461026.372 12062158.200 9290802.290 10 0 59696 70200.00000 0 -21292826.867 12561472.532 6258138.506 10 0 59696 71100.00000 0 -21743080.921 12954558.852 3103810.661 10 0 59696 72000.00000 0 -21822441.876 13185925.604 -110875.316 10 0 59696 72900.00000 0 -21554186.554 13204769.396 -3323401.816 10 0 59696 73800.00000 0 -20973098.942 12967336.688 -6471261.582 10 0 59696 74700.00000 0 -20123884.733 12439000.567 -9493181.962 10 0 59696 75600.00000 0 -19059183.930 11595963.135 -12330326.614 10 0 59696 76500.00000 0 -17837265.870 10426509.720 -14927450.229 10 0 59696 77400.00000 0 -16519504.662 8931760.332 -17233982.709 10 0 59696 78300.00000 0 -15167742.357 7125884.994 -19205020.889 10 0 59696 79200.00000 0 -13841651.803 5035772.525 -20802207.883 10 0 59696 80100.00000 0 -12596211.041 2700165.573 -21994482.554 10 0 59696 81000.00000 0 -11479396.036 168297.288 -22758684.454 10 0 59696 81900.00000 0 -10530189.000 -2501913.940 -23080002.614 10 0 59696 82800.00000 0 -9776985.972 -5246036.589 -22952259.777 10 0 59696 83700.00000 0 -9236470.098 -7995574.616 -22378026.998 10 0 59696 84600.00000 0 -8912997.187 -10680590.741 -21368566.878 10 0 59696 85500.00000 0 -8798518.383 -13232395.247 -19943607.037 10 0 59697 0.00000 0 -8873041.972 -15586188.501 -18130948.915 10 0 59697 900.00000 0 -9105613.692 -17683548.796 -15965918.816 10 0 59697 1800.00000 0 -9455772.894 -19474659.344 -13490674.859 10 0 59697 2700.00000 0 -9875422.084 -20920186.644 -10753380.361 10 0 59697 3600.00000 0 -10311029.931 -21992729.705 -7807262.382 10 0 59697 4500.00000 0 -10706073.907 -22677782.094 -4709573.241 10 0 59697 5400.00000 0 -11003618.744 -22974167.802 -1520475.596 10 0 59697 6300.00000 0 -11148921.345 -22893934.155 1698126.974 10 0 59697 7200.00000 0 -11091951.862 -22461707.747 4883790.865 10 0 59697 8100.00000 0 -10789724.341 -21713541.794 7974741.414 10 0 59697 9000.00000 0 -10208338.554 -20695304.448 10911066.546 10 0 59697 9900.00000 0 -9324646.901 -19460676.612 13635872.069 10 0 59697 10800.00000 0 -8127476.124 -18068843.807 16096376.716 10 0 59697 11700.00000 0 -6618352.175 -16581979.036 18244926.385 10 0 59697 12600.00000 0 -4811697.395 -15062621.972 20039908.644 10 0 59697 13500.00000 0 -2734490.935 -13571063.686 21446550.792 10 0 59697 14400.00000 0 -425405.534 -12162845.564 22437586.934 10 0 59697 15300.00000 0 2066544.699 -10886476.122 22993781.964 10 0 59697 16200.00000 0 4683790.783 -9781460.157 23104302.972 10 0 59697 17100.00000 0 7362357.211 -8876721.731 22766931.253 10 0 59697 18000.00000 0 10034284.606 -8189486.203 21988110.753 10 0 59697 18900.00000 0 12630227.924 -7724667.613 20782831.703 10 0 59697 19800.00000 0 15082123.920 -7474786.857 19174350.894 10 0 59697 20700.00000 0 17325818.252 -7420424.247 17193753.037 10 0 59697 21600.00000 0 19303543.994 -7531187.755 14879360.480 10 0 59697 22500.00000 0 20966148.873 -7767156.737 12276001.434 10 0 59697 23400.00000 0 22274978.452 -8080740.864 9434149.781 10 0 59697 24300.00000 0 23203336.415 -8418876.238 6408952.134 10 0 59697 25200.00000 0 23737460.398 -8725466.107 3259160.384 10 0 59697 26100.00000 0 23876971.863 -8943962.843 45990.235 10 0 59697 27000.00000 0 23634780.538 -9019981.350 -3168071.959 10 0 59697 27900.00000 0 23036446.988 -8903832.301 -6320490.455 10 0 59697 28800.00000 0 22119029.853 -8552866.687 -9349904.780 10 0 59697 29700.00000 0 20929466.323 -7933530.827 -12197333.071 10 0 59697 30600.00000 0 19522554.300 -7023043.197 -14807329.621 10 0 59697 31500.00000 0 17958621.798 -5810620.476 -17129073.010 10 0 59697 32400.00000 0 16300982.380 -4298199.328 -19117362.827 10 0 59697 33300.00000 0 14613284.438 -2500621.983 -20733504.965 10 0 59697 34200.00000 0 12956866.514 -445276.508 -21946067.811 10 0 59697 35100.00000 0 11388230.304 1828794.176 -22731494.567 10 0 59697 36000.00000 0 9956737.705 4272278.029 -23074559.925 10 0 59697 36900.00000 0 8702628.498 6827416.904 -22968662.474 10 0 59697 37800.00000 0 7655441.395 9430191.016 -22415947.666 10 0 59697 38700.00000 0 6832903.838 12012774.044 -21427259.384 10 0 59697 39600.00000 0 6240336.073 14506156.518 -20021921.599 10 0 59697 40500.00000 0 5870593.089 16842828.386 -18227354.814 10 0 59697 41400.00000 0 5704545.350 18959409.232 -16078535.166 10 0 59697 42300.00000 0 5712076.511 20799116.740 -13617307.120 10 0 59697 43200.00000 0 5853554.577 22313971.055 -10891563.464 10 0 59697 44100.00000 0 6081713.024 23466643.719 -7954308.844 10 0 59697 45000.00000 0 6343861.357 24231874.788 -4862625.474 10 0 59697 45900.00000 0 6584330.712 24597399.996 -1676561.369 10 0 59697 46800.00000 0 6747050.457 24564350.344 1542036.960 10 0 59697 47700.00000 0 6778146.424 24147108.618 4730724.427 10 0 59697 48600.00000 0 6628450.694 23372630.081 7827666.472 10 0 59697 49500.00000 0 6255816.793 22279256.916 10772833.952 10 0 59697 50400.00000 0 5627142.593 20915076.970 13509160.788 10 0 59697 51300.00000 0 4720015.586 19335896.170 15983642.379 10 0 59697 52200.00000 0 3523911.106 17602909.747 18148354.176 10 0 59697 53100.00000 0 2040892.858 15780169.591 19961371.400 10 0 59697 54000.00000 0 285785.739 13931953.198 21387573.087 10 0 59697 54900.00000 0 -1714187.217 12120143.295 22399315.780 10 0 59697 55800.00000 0 -3920289.816 10401726.623 22976964.686 10 0 59697 56700.00000 0 -6283644.188 8826515.123 23109272.644 10 0 59697 57600.00000 0 -8747033.488 7435183.479 22793599.964 10 0 59697 58500.00000 0 -11247062.527 6257703.939 22035970.865 10 0 59697 59400.00000 0 -13716588.419 5312242.937 20850965.084 10 0 59697 60300.00000 0 -16087321.881 4604565.035 19261446.010 10 0 59697 61200.00000 0 -18292492.368 4127968.903 17298129.632 10 0 59697 62100.00000 0 -20269467.244 3863757.929 14999001.443 10 0 59697 63000.00000 0 -21962216.516 3782225.880 12408591.304 10 0 59697 63900.00000 0 -23323520.430 3844116.445 9577119.208 10 0 59697 64800.00000 0 -24316827.549 4002495.355 6559527.482 10 0 59697 65700.00000 0 -24917684.974 4204956.219 3414417.532 10 0 59697 66600.00000 0 -25114679.989 4396066.681 202911.541 10 0 59697 67500.00000 0 -24909852.787 4519950.982 -3012538.688 10 0 59697 68400.00000 0 -24318562.114 4522898.725 -6169372.132 10 0 59697 69300.00000 0 -23368808.866 4355888.258 -9206143.607 10 0 59697 70200.00000 0 -22100045.703 3976916.334 -12063728.688 10 0 59697 71100.00000 0 -20561522.717 3353033.842 -14686484.026 10 0 59697 72000.00000 0 -18810238.947 2461999.775 -17023339.368 10 0 59697 72900.00000 0 -16908586.357 1293481.894 -19028799.203 10 0 59697 73800.00000 0 -14921785.815 -150248.167 -20663833.920 10 0 59697 74700.00000 0 -12915223.402 -1854155.998 -21896642.661 10 0 59697 75600.00000 0 -10951799.289 -3790829.558 -22703272.992 10 0 59697 76500.00000 0 -9089400.572 -5921393.125 -23068085.433 10 0 59697 77400.00000 0 -7378604.009 -8196912.389 -22984054.093 10 0 59697 78300.00000 0 -5860704.442 -10560232.346 -22452898.008 10 0 59697 79200.00000 0 -4566150.719 -12948171.452 -21485041.126 10 0 59697 80100.00000 0 -3513453.528 -15293980.532 -20099402.185 10 0 59697 81000.00000 0 -2708609.491 -17529963.896 -18323019.068 10 0 59697 81900.00000 0 -2145063.949 -19590153.410 -16190515.339 10 0 59697 82800.00000 0 -1804212.295 -21412923.996 -13743419.740 10 0 59697 83700.00000 0 -1656416.877 -22943441.652 -11029352.251 10 0 59697 84600.00000 0 -1662494.931 -24135842.121 -8101092.825 10 0 59697 85500.00000 0 -1775613.262 -24955049.678 -5015551.319 99